Location: Unspecified
(0.0000°N, 0.0000°E)
Time: 18:14:05
(UTC+00:00)

ISS - Pass Details

Date: 16 January 2021
Orbit: 418 x 421 km, 51.6° (Epoch: 25 January)

Event Time Altitude Azimuth Distance (km) Brightness Sun altitude
Exits shadow 04:15:53 12° 54° (NE) 1,391 -0.8 -26.4°
Maximum altitude 04:15:54 12° 54° (NE) 1,391 -0.8 -26.4°
Drops below altitude 10° 04:17:09 10° 76° (ENE) 1,490 -0.3 -26.2°
Sets 04:20:24 0° 110° (ESE) 2,356 1.4 -25.4°
